sat.trackr.live / text

‹ back to catalog

KUIPER-00015

NORAD 63731 · 2025-088H

PAYLOAD ACTIVE UNKNOWN

§ Identity

Operator
Country
US
Launch date
2025-04-28
Launch site
AFETR
Launch vehicle
Mass (kg)
RCS (m²)

External: N2YO · Heavens-Above · Gunter

§ Orbital elements

Epoch: 2026-09-21T09:43:24.219552Z

Period
97.30 min
Inclination
51.9015°
Eccentricity
0.0000213
Mean motion
14.79927171 rev/d
Perigee alt
629.4 km
Apogee alt
629.7 km
Semi-major
7,007.7 km
B*
-6.7194e-5
RAAN
332.6579°
Arg perigee
95.3917°
Mean anomaly
264.7070°
Rev number
7,668

§ Raw data

KUIPER-000151 63731U 25088H   26264.40514143 -.00000733  00000+0 -67194-4 0  99902 63731  51.9015 332.6579 0000213  95.3917 264.7070 14.79927171 76689

JSON: /api/v1/satellites/63731 · /tle

For live sub-satellite position, see the globe view (requires WebGL).

§ Visibility from observer

Set your observer location to see the next 7 days of passes ≥ 10°. The values pass through the URL so the page stays shareable.

No JS? Fill the form by hand. The geolocation button needs JavaScript.